Content
SEND FEEDBACK

Daily
Averages
Monthly
Summary
United States of America

NEW YORK, NEW YORK


Home > North America > United States > New York
Elevation: 131 feet     Latitude: 40 47N     Longitude: 073 58W

WEATHER
 
SELECT A DAY
Number of Records: 151,206;   Date Range: 11/1/95 - 10/21/14
 
SHARE

PRINT THIS DATA

[ ← Previous Day ]
WEATHER ALMANAC - FEBRUARY 16, 2013
[ Next Day → ]
[ °C ]   °F
Weather ElementAverageHighLow
Temperature35.3 °F39 °F (1:51 pm)30.9 °F (11:51 pm)
Dewpoint25.1 °F33.1 °F (1:51 am)12.9 °F (11:51 pm)
Humidity68.1 %89 % (1:51 am)47 % (11:51 pm)
Barometer29.90 in29.98 in (2:15 am)29.73 in (11:51 pm)
Wind Speed7.1 mph11.5 mph (3:51 am)
Wind Gust20.7 mph (11:43 am)
Weather ElementAverage
Visibility9.7 mi
Wind DirectionNE (48.3 °)

Weather ElementTotal
Precipitation0.03 in
Heating Degree Days30.1 (Base 65)
Averaged from 29 records on February 16, 2013
WEATHER CONDITIONS BREAKOUT
WIND DIRECTION BREAKOUT
WEATHER BY HOUR - FEBRUARY 16, 2013
[ °C ]   °F
Local TimeTemperatureDewpointHumidityBarometerVisibilityWind DirectionWind SpeedGust SpeedPrecipitationEventsConditions
1:51 AM36.0 °F33.1 °F89 %29.96 in9.0 miVariable4.6 mph0.00 inOvercast
2:15 AM36.0 °F33.1 °F89 %29.98 in8.0 miVariable4.6 mph0.01 inOvercast
2:51 AM36.0 °F33.1 °F89 %29.94 in8.0 miVariable6.9 mph0.02 inOvercast
3:51 AM35.1 °F32.0 °F89 %29.93 in9.0 miNNE (30°)11.5 mph16.1 mph0.00 inOvercast
4:03 AM35.1 °F32.0 °F89 %29.94 in9.0 miNE (50°)9.2 mphOvercast
4:51 AM35.1 °F30.9 °F85 %29.93 in10.0 miNE (40°)8.1 mphOvercast
5:51 AM35.1 °F30.0 °F82 %29.94 in7.0 miVariable5.8 mph16.1 mph0.00 inSnowLight Snow
6:49 AM33.8 °F30.2 °F87 %29.96 in10.0 miNNE (20°)8.1 mph0.00 inOvercast
6:51 AM34.0 °F30.0 °F85 %29.94 in10.0 miVariable6.9 mph0.00 inOvercast
7:51 AM34.0 °F28.9 °F82 %29.96 in10.0 miVariable3.5 mphOvercast
8:01 AM34.0 °F28.9 °F82 %29.98 in10.0 miNorth (350°)8.1 mphOvercast
8:51 AM34.0 °F28.0 °F79 %29.95 in10.0 miVariable6.9 mphOvercast
9:51 AM35.1 °F26.1 °F70 %29.94 in10.0 miVariable4.6 mphMostly Cloudy
10:51 AM36.0 °F25.0 °F64 %29.94 in10.0 miNNE (20°)8.1 mphOvercast
11:14 AM37.0 °F25.0 °F62 %29.95 in10.0 miVariable6.9 mphOvercast
11:43 AM37.0 °F25.0 °F62 %29.94 in10.0 miVariable3.5 mph20.7 mphMostly Cloudy
11:51 AM37.0 °F25.0 °F62 %29.91 in10.0 miVariable6.9 mphMostly Cloudy
12:51 PM37.9 °F24.1 °F57 %29.89 in10.0 miNE (40°)10.4 mphOvercast
1:51 PM39.0 °F24.1 °F55 %29.88 in10.0 miVariable6.9 mphMostly Cloudy
2:51 PM39.0 °F24.1 °F55 %29.85 in10.0 miVariable6.9 mphOvercast
3:51 PM37.0 °F21.9 °F54 %29.86 in10.0 miVariable4.6 mphOvercast
4:51 PM36.0 °F21.0 °F55 %29.85 in10.0 miNE (40°)8.1 mphOvercast
5:51 PM36.0 °F19.9 °F52 %29.84 in10.0 miVariable5.8 mphOvercast
6:51 PM35.1 °F19.0 °F52 %29.83 in10.0 miVariable4.6 mphOvercast
7:51 PM34.0 °F19.0 °F54 %29.83 in10.0 miENE (60°)6.9 mphOvercast
8:51 PM33.1 °F16.0 °F50 %29.82 in10.0 miNE (40°)9.2 mphOvercast
9:51 PM32.0 °F15.1 °F50 %29.80 in10.0 miNorth (360°)10.4 mphOvercast
10:51 PM32.0 °F14.0 °F48 %29.76 in10.0 miVariable6.9 mphOvercast
11:51 PM30.9 °F12.9 °F47 %29.73 in10.0 miNorth (350°)10.4 mph20.7 mphOvercast
Hourly data recorded from KNYC, located miles away from New York, New York







STORIES FROM OUR PARTNERS